Location: Ferma
(41.9500°N, 44.5167°E)
Time: 18:10:42
(UTC+00:00)

H-2A R/B - Pass Details

Date: 24 October 2021
Orbit: 528 x 651 km, 98.3° (Epoch: 02 December)

Event Time Altitude Azimuth Distance (km) Brightness Sun altitude
Rises 15:04:04 0° 144° (SE) 2,893 5.7 -11.3°
Reaches altitude 10° 15:06:25 10° 136° (SE) 1,972 4.8 -11.7°
Maximum altitude 15:10:18 35° 70° (ENE) 982 3.1 -12.4°
Drops below altitude 10° 15:14:05 10° 5° (N) 1,917 5.0 -13.1°
Sets 15:16:20 0° 356° (N) 2,800 5.9 -13.6°
